Location: *
(58.4167°N, 22.5000°E)
Time: 08:19:05
(UTC+00:00)

Cosmos 1821 Rocket - Pass Details

Date: 22 September 2019
Orbit: 944 x 1005 km, 82.9° (Epoch: 20 October)

Event Time Altitude Azimuth Distance (km) Brightness Sun altitude
Rises 18:48:27 0° 347° (NNW) 3,672 7.7 -17.9°
Reaches altitude 10° 18:50:59 10° 348° (NNW) 2,713 6.9 -18.2°
Maximum altitude 18:57:12 82° 76° (ENE) 970 3.9 -18.9°
Enters shadow 19:01:00 25° 163° (SSE) 1,823 5.0 -19.3°
